Hurricane Symbol View the latest observations near Atlantic Tropical Storm Alberto.

Station KBMG1 - 8679598 - Kings Bay MSF Pier, GA Image indicating link to RSS feed of recent meteorological observations for station KBMG1


Conditions at KBMG1 as of
(2:30 pm EDT)
1830 GMT on 06/19/2024:
     

Click on the graph icon in the table below to see a time series plot of the last five days of that observation.

5-day plot - Atmospheric Pressure Atmospheric Pressure (PRES):30.17 in
5-day plot - Air Temperature Air Temperature (ATMP): 82.2 °F
NOS Water Level Observation Network Water Level
Previous observations
TIME
(EDT)
5-day plot - Wind Direction
WDIR
 
5-day plot - Wind Speed
WSPD
kts
5-day plot - Wind Gust
GST
kts
5-day plot - Wave Height
WVHT
ft
5-day plot - Dominant Wave Period
DPD
sec
5-day plot - Average Wave Period
APD
sec
5-day plot - Mean Wave Direction
MWD
 
5-day plot - Atmospheric Pressure
PRES
in
5-day plot - Pressure Tendency
PTDY
in
5-day plot - Air Temperature
ATMP
°F
5-day plot - Water Temperature
WTMP
°F
5-day plot - Dew Point
DEWP
°F
5-day plot - Salinity
SAL
psu
5-day plot - Visibility
VIS
nmi
5-day plot - Tide (above MLLW)
TIDE
ft
2024-06-19 02:24 pm-------30.17- 81.7-----
2024-06-19 02:18 pm-------30.17- 81.5-----
2024-06-19 02:12 pm-------30.17- 82.8-----
2024-06-19 02:06 pm-------30.17- 82.4-----
2024-06-19 02:00 pm-------30.17+0.00 82.2-----
2024-06-19 01:54 pm-------30.18- 82.8-----
2024-06-19 01:48 pm-------30.18- 82.8-----
2024-06-19 01:42 pm-------30.18- 82.2-----
2024-06-19 01:36 pm-------30.18- 81.7-----
2024-06-19 01:30 pm-------30.18- 82.8-----
2024-06-19 01:24 pm-------30.18- 82.2-----
2024-06-19 01:18 pm-------30.18- 82.0-----
2024-06-19 01:12 pm-------30.18- 82.4-----
2024-06-19 01:06 pm-------30.18- 82.0-----
2024-06-19 01:00 pm-------30.18+0.03 82.6-----
2024-06-19 12:54 pm-------30.18- 82.8-----
2024-06-19 12:48 pm-------30.18- 82.6-----
2024-06-19 12:42 pm-------30.18- 82.4-----
2024-06-19 12:36 pm-------30.18- 82.8-----
2024-06-19 12:30 pm-------30.18- 82.4-----
2024-06-19 12:24 pm-------30.18- 82.9-----
2024-06-19 12:18 pm-------30.18- 82.8-----
2024-06-19 12:12 pm-------30.18- 82.8-----
2024-06-19 12:06 pm-------30.18- 82.9-----
2024-06-19 12:00 pm-------30.18+0.04 82.6-----
2024-06-19 11:54 am-------30.18- 82.4-----
2024-06-19 11:48 am-------30.18- 83.1-----
2024-06-19 11:42 am-------30.18- 82.8-----
2024-06-19 11:36 am-------30.18- 82.8-----
2024-06-19 11:30 am-------30.18- 82.8-----
2024-06-19 11:24 am-------30.17- 82.6-----
2024-06-19 11:18 am-------30.18- 82.8-----
2024-06-19 11:12 am-------30.18- 82.6-----
2024-06-19 11:06 am-------30.17- 82.4-----
2024-06-19 11:00 am-------30.17+0.05 82.6-----
2024-06-19 10:54 am-------30.17- 82.4-----
2024-06-19 10:48 am-------30.17- 82.4-----
2024-06-19 10:42 am-------30.17- 82.2-----
2024-06-19 10:36 am-------30.17- 82.0-----
2024-06-19 10:30 am-------30.17- 82.6-----
2024-06-19 10:24 am-------30.16- 82.4-----
2024-06-19 10:18 am-------30.16- 82.4-----
2024-06-19 10:12 am-------30.16- 82.0-----
2024-06-19 10:06 am-------30.16- 81.9-----
2024-06-19 10:00 am-------30.15+0.05 82.0-----
2024-06-19 09:54 am-------30.15- 82.2-----
2024-06-19 09:48 am-------30.15- 81.9-----
2024-06-19 09:42 am-------30.15- 82.0-----
2024-06-19 09:36 am-------30.15- 81.7-----
2024-06-19 09:30 am-------30.15- 81.9-----
2024-06-19 09:24 am-------30.15- 81.9-----
2024-06-19 09:18 am-------30.15- 81.7-----
2024-06-19 09:12 am-------30.15- 81.7-----
2024-06-19 09:06 am-------30.14- 81.7-----
2024-06-19 09:00 am-------30.15+0.05 81.7-----
2024-06-19 08:54 am-------30.14- 81.5-----
2024-06-19 08:48 am-------30.14- 81.3-----
2024-06-19 08:42 am-------30.14- 81.3-----
2024-06-19 08:36 am-------30.14- 81.1-----
2024-06-19 08:30 am-------30.14- 81.7-----
2024-06-19 08:24 am-------30.14- 81.5-----
2024-06-19 08:18 am-------30.13- 81.0-----
2024-06-19 08:12 am-------30.13- 80.8-----
2024-06-19 08:06 am-------30.13- 80.8-----
2024-06-19 08:00 am-------30.12+0.03 80.8-----
2024-06-19 07:54 am-------30.12- 80.8-----
2024-06-19 07:48 am-------30.11-------
2024-06-19 07:42 am-------30.11-------
2024-06-19 07:36 am-------30.11-------
2024-06-19 07:30 am-------30.11- 80.2-----
2024-06-19 07:24 am-------30.11- 80.2-----
2024-06-19 07:18 am-------30.11- 80.2-----
2024-06-19 07:12 am-------30.11- 80.2-----
2024-06-19 07:06 am-------30.11- 80.2-----
2024-06-19 07:00 am-------30.11+0.02 80.2-----
2024-06-19 06:54 am-------30.10- 80.2-----
2024-06-19 06:48 am-------30.10- 80.1-----
2024-06-19 06:42 am-------30.11- 80.1-----
2024-06-19 06:36 am-------30.11- 80.1-----
2024-06-19 06:30 am-------30.11- 80.2-----
2024-06-19 06:24 am-------30.11- 80.1-----
2024-06-19 06:18 am-------30.11- 80.2-----
2024-06-19 06:12 am-------30.10- 80.1-----
2024-06-19 06:06 am-------30.10- 80.2-----
2024-06-19 06:00 am-------30.10+0.01 80.2-----
2024-06-19 05:54 am-------30.10- 80.2-----
2024-06-19 05:48 am-------30.10- 80.2-----
2024-06-19 05:42 am-------30.10- 80.2-----
2024-06-19 05:36 am-------30.10- 80.2-----
2024-06-19 05:30 am-------30.09- 80.2-----
2024-06-19 05:24 am-------30.09- 80.1-----
2024-06-19 05:18 am-------30.09- 80.1-----
2024-06-19 05:12 am-------30.09- 80.2-----
2024-06-19 05:06 am-------30.09- 80.2-----
2024-06-19 05:00 am-------30.09+0.01 80.2-----
2024-06-19 04:54 am-------30.09- 80.2-----
2024-06-19 04:48 am-------30.09- 80.2-----
2024-06-19 04:42 am-------30.09- 80.4-----
2024-06-19 04:36 am-------30.09- 80.4-----
2024-06-19 04:30 am-------30.09- 80.4-----
2024-06-19 04:24 am-------30.09- 80.4-----
2024-06-19 04:18 am-------30.09- 80.4-----
2024-06-19 04:12 am-------30.09- 80.4-----
2024-06-19 04:06 am-------30.09- 80.6-----
2024-06-19 04:00 am-------30.09-0.01 80.6-----
2024-06-19 03:54 am-------30.08- 80.6-----
2024-06-19 03:48 am-------30.08- 80.6-----
2024-06-19 03:42 am-------30.08- 80.6-----
2024-06-19 03:36 am-------30.08- 80.6-----
2024-06-19 03:30 am-------30.09- 80.6-----
2024-06-19 03:24 am-------30.09- 80.6-----
2024-06-19 03:18 am-------30.09- 80.8-----
2024-06-19 03:12 am-------30.09- 80.8-----
2024-06-19 03:06 am-------30.09- 80.8-----
2024-06-19 03:00 am-------30.09-0.02 80.8-----
2024-06-19 02:54 am-------30.09- 80.8-----
2024-06-19 02:48 am-------30.09- 80.8-----
2024-06-19 02:42 am-------30.09- 80.8-----
2024-06-19 02:36 am-------30.09- 80.8-----
2024-06-19 02:30 am-------30.09- 80.8-----
2024-06-19 02:24 am-------30.09- 80.8-----
2024-06-19 02:18 am-------30.09- 80.8-----
2024-06-19 02:12 am-------30.09- 80.8-----
2024-06-19 02:06 am-------30.09- 80.8-----
2024-06-19 02:00 am-------30.09-0.03 81.0-----
2024-06-19 01:54 am-------30.09- 81.0-----
2024-06-19 01:48 am-------30.09- 81.0-----
2024-06-19 01:42 am-------30.09- 81.1-----
2024-06-19 01:36 am-------30.09- 81.1-----
2024-06-19 01:30 am-------30.09-------
2024-06-19 01:24 am-------30.09-------
2024-06-19 01:18 am-------30.09- 81.3-----
2024-06-19 01:12 am-------30.09- 81.1-----
2024-06-19 01:06 am-------30.10- 81.1-----
2024-06-19 01:00 am-------30.10+0.00 81.3-----
2024-06-19 12:54 am-------30.10- 81.3-----
2024-06-19 12:48 am-------30.10- 81.1-----
2024-06-19 12:42 am-------30.10- 81.0-----
2024-06-19 12:36 am-------30.10- 80.8-----
2024-06-19 12:30 am-------30.11- 81.3-----
2024-06-19 12:24 am-------30.11- 81.5-----
2024-06-19 12:18 am-------30.11- 81.5-----
2024-06-19 12:12 am-------30.11- 81.5-----
2024-06-19 12:06 am-------30.11- 81.5-----
2024-06-19 12:00 am-------30.11+0.02 81.5-----
2024-06-18 11:54 pm-------30.11- 81.7-----
2024-06-18 11:48 pm-------30.11- 81.7-----
2024-06-18 11:42 pm-------30.11- 81.7-----
2024-06-18 11:36 pm-------30.11- 81.7-----
2024-06-18 11:30 pm-------30.11- 81.7-----
2024-06-18 11:24 pm-------30.11- 81.7-----
2024-06-18 11:18 pm-------30.11- 81.7-----
2024-06-18 11:12 pm-------30.11- 81.9-----
2024-06-18 11:06 pm-------30.11- 81.9-----
2024-06-18 11:00 pm-------30.11+0.03 81.9-----
2024-06-18 10:54 pm-------30.11- 81.9-----
2024-06-18 10:48 pm-------30.11- 81.9-----
2024-06-18 10:42 pm-------30.11- 81.7-----
2024-06-18 10:36 pm-------30.11- 81.9-----
2024-06-18 10:30 pm-------30.11- 81.9-----
2024-06-18 10:24 pm-------30.10- 81.9-----
2024-06-18 10:18 pm-------30.10- 81.9-----
2024-06-18 10:12 pm-------30.09- 81.7-----
2024-06-18 10:06 pm-------30.10- 81.9-----
2024-06-18 10:00 pm-------30.09+0.02 81.9-----
2024-06-18 09:54 pm-------30.09- 81.7-----
2024-06-18 09:48 pm-------30.09- 81.9-----
2024-06-18 09:42 pm-------30.09- 81.7-----
2024-06-18 09:36 pm-------30.09- 81.7-----
2024-06-18 09:30 pm-------30.09- 81.7-----
2024-06-18 09:24 pm-------30.09- 81.9-----
2024-06-18 09:18 pm-------30.09- 81.7-----
2024-06-18 09:12 pm-------30.08- 81.7-----
2024-06-18 09:06 pm-------30.08- 81.7-----
2024-06-18 09:00 pm-------30.08+0.01 81.7-----
2024-06-18 08:54 pm-------30.08- 81.7-----
2024-06-18 08:48 pm-------30.08- 81.7-----
2024-06-18 08:42 pm-------30.08- 81.7-----
2024-06-18 08:36 pm-------30.09- 81.9-----
2024-06-18 08:30 pm-------30.08- 81.9-----
2024-06-18 08:24 pm-------30.08- 81.9-----
2024-06-18 08:18 pm-------30.08- 81.9-----
2024-06-18 08:12 pm-------30.08- 81.9-----
2024-06-18 08:06 pm-------30.08- 81.9-----
2024-06-18 08:00 pm-------30.08+0.00 81.9-----
2024-06-18 07:54 pm-------30.08- 82.0-----
2024-06-18 07:48 pm-------30.08- 82.0-----
2024-06-18 07:42 pm-------30.08- 81.9-----
2024-06-18 07:36 pm-------30.08- 81.7-----
2024-06-18 07:30 pm-------30.08- 82.0-----
2024-06-18 07:24 pm-------30.08- 82.0-----
2024-06-18 07:18 pm-------30.08- 81.9-----
2024-06-18 07:00 pm-------30.07-0.02 81.7-----
2024-06-18 06:54 pm-------30.07- 81.9-----
2024-06-18 06:48 pm-------30.07- 81.7-----
2024-06-18 06:42 pm-------30.07- 81.5-----
2024-06-18 06:36 pm-------30.07- 81.0-----
2024-06-18 06:30 pm-------30.07- 82.2-----
2024-06-18 06:24 pm-------30.07- 82.8-----
2024-06-18 06:18 pm-------30.06- 82.6-----
2024-06-18 06:12 pm-------30.06- 83.1-----
2024-06-18 06:06 pm-------30.07- 83.1-----
2024-06-18 06:00 pm-------30.07-0.02 83.1-----
2024-06-18 05:54 pm-------30.07- 83.3-----
2024-06-18 05:48 pm-------30.07- 83.1-----
2024-06-18 05:42 pm-------30.07- 82.8-----
2024-06-18 05:36 pm-------30.07- 83.1-----
2024-06-18 05:30 pm-------30.07- 83.1-----
2024-06-18 05:24 pm-------30.07- 82.9-----
2024-06-18 05:18 pm-------30.08- 82.6-----
2024-06-18 05:12 pm-------30.08- 82.4-----
2024-06-18 05:06 pm-------30.07- 82.6-----
2024-06-18 05:00 pm-------30.08-0.02 82.4-----
2024-06-18 04:54 pm-------30.08- 82.4-----
2024-06-18 04:48 pm-------30.08- 83.3-----
2024-06-18 04:42 pm-------30.08- 83.8-----
2024-06-18 04:36 pm-------30.08- 83.5-----
2024-06-18 04:30 pm-------30.08- 83.7-----
2024-06-18 04:24 pm-------30.09- 84.0-----
2024-06-18 04:18 pm-------30.09- 83.5-----
2024-06-18 04:12 pm-------30.09- 83.5-----
2024-06-18 04:06 pm-------30.09- 83.7-----
2024-06-18 04:00 pm-------30.09-0.01 83.7-----
2024-06-18 03:54 pm-------30.09- 82.9-----
2024-06-18 03:48 pm-------30.09- 83.1-----
2024-06-18 03:42 pm-------30.09- 82.6-----
2024-06-18 03:36 pm-------30.09- 82.6-----
2024-06-18 03:30 pm-------30.09- 83.5-----
2024-06-18 03:24 pm-------30.09- 83.7-----
2024-06-18 03:18 pm-------30.09- 83.8-----
2024-06-18 03:12 pm-------30.09- 84.2-----
2024-06-18 03:06 pm-------30.09- 84.0-----
2024-06-18 03:00 pm-------30.09+0.00 84.4-----
2024-06-18 02:54 pm-------30.09- 83.8-----